Regional Weather Roundup
Issued by NWS

Home | Current Version | Previous Version | Text Only | Print | Product List | Glossary Off
Versions: 1 2 3 4 5 6 7 8 9 10 11 12 13 14 15 16 17 18 19 20 21 22 23 24 25 26 27 28 29 30 31 32 33 34 35 36 37 38 39 40 41 42 43 44 45 46 47 48 49 50

000
ASUS43 KMPX 260810
RWRMN
WEATHER ROUNDUP FOR MINNESOTA
NATIONAL WEATHER SERVICE TWIN CITIES/CHANHASSEN MN
300 AM CDT THU APR 26 2018


NOTE: "FAIR" INDICATES FEW OR NO CLOUDS BELOW 12,000 FEET WITH NO
SIGNIFICANT WEATHER AND/OR OBSTRUCTIONS TO VISIBILITY. N/A MEANS
CURRENT SKY AND/OR WEATHER CONDITIONS ARE NOT AVAILABLE.

MNZ060>063-068>070-260900-
   Twin Cities Metro

CITY           SKY/WX    TMP DP  RH WIND       PRES   REMARKS
TWIN CITIES    CLOUDY    47  34  60 SW7       29.90F
ST PAUL        FAIR      42  36  79 SE3       29.91F
CRYSTAL        FAIR      42  32  67 S5        29.88F
BLAINE         FAIR      45  34  65 S5        29.88F
LAKEVILLE      FAIR      37  34  87 CALM      29.90F
EDEN PRAIRIE   FAIR      42  34  73 S7        29.89F
SOUTH ST PAUL  FAIR      41  32  69 CALM      29.90F
LAKE ELMO      FAIR      36  32  87 CALM      29.90F
$$
MNZ001>005-007-008-013>017-022>024-027-028-260900-
   Northwest Minnesota

CITY           SKY/WX    TMP DP  RH WIND       PRES   REMARKS
BEMIDJI        FAIR      44  31  62 SW5       29.77S
HALLOCK        FAIR      43  28  56 N10       29.88R
ROSEAU         FAIR      45  37  76 N12       29.83R
WARROAD        FAIR      46  37  71 N12G18    29.82R
THIEF RVR FALL MOCLDY    47  33  58 N16       29.82R
CROOKSTON      FAIR      45  36  70 N12       29.84R
FOSSTON        FAIR      37  30  75 W3        29.81R
DETROIT LAKES  FAIR      46  32  57 SW8       29.80R
MOORHEAD       FAIR      43  36  75 S3        29.81F
PARK RAPIDS    FAIR      40  31  70 S7        29.79F
MAHNOMEN       FAIR      39  32  77 S10       29.78F
$$
MNZ006-009>011-018-025>026-260900-
   North Central Minnesota

CITY           SKY/WX    TMP DP  RH WIND       PRES   REMARKS
BAUDETTE       MOCLDY    44  35  70 N17G30    29.77R
FLAG ISLAND    FAIR      39  34  81 N10       29.80R
INTL FALLS     FAIR      43  29  57 SW6       29.74F
WASKISH        FAIR      39  32  75 SW7       29.78R
LONGVILLE      FAIR      43  30  61 S5        29.79F
GRAND RAPIDS   FAIR      41  28  60 S6        29.81F
CRANE LAKE     FAIR      43  27  52 S6        29.77F
ORR            FAIR      39  25  56 CALM      29.75F
COOK           FAIR      43  27  52 S6        29.78F
WALKER         FAIR      43  31  60 SW9       29.78S
$$
MNZ012-019>021-037-260900-
   Northeast Minnesota

CITY           SKY/WX    TMP DP  RH WIND       PRES   REMARKS
DULUTH         FAIR      42  25  50 SW9       29.82F
ELY            FAIR      43  23  45 S5        29.79F
HIBBING        FAIR      32  23  69 S3        29.80F
EVELETH        FAIR      32  24  72 CALM      29.82F
DULUTH HARBOR  FAIR      34  30  86 CALM      29.85F
TWO HARBORS    FAIR      32  27  80 CALM      29.81F
SILVER BAY     FAIR      28  25  86 CALM      29.81F
GRAND MARAIS     N/A     30  24  78 CALM      29.83F
G MARAIS ARPRT FAIR      36  14  41 SW3       29.80F
$$
MNZ029>031-032-039>041-046>048-054>057-064-260900-
   West Central Minnesota

CITY           SKY/WX    TMP DP  RH WIND       PRES   REMARKS
FERGUS FALLS   FAIR      43  34  70 S9        29.79S
WHEATON        CLOUDY    45  34  65 S8        29.81F
MORRIS         CLOUDY    41  36  81 SE10      29.81F
ALEXANDRIA     FAIR      46  33  60 SW10      29.82F
ELBOW LAKE     FAIR      42  34  75 S13       29.81F
WADENA         FAIR      41  32  70 SW6       29.80F
GLENWOOD       FAIR      39  34  81 SW7       29.84F
APPLETON       CLOUDY    45  34  65 S7        29.83F
BENSON         CLOUDY    39  34  81 S7        29.85F
ORTONVILLE     CLOUDY    41  34  75 S7        29.81F
WILLMAR        FAIR      37  34  87 S3        29.87F
$$
MNZ033>034-036-042>043-049>051-058-059-260900-
   Central Minnesota

CITY           SKY/WX    TMP DP  RH WIND       PRES   REMARKS
ST CLOUD       FAIR      41  33  73 S8        29.85F
SAUK CENTRE    FAIR      40  33  75 S6        29.84F
PAYNESVILLE    FAIR      43  34  70 S8        29.85F
AITKIN         FAIR      39  28  65 S7        29.81F
PINE RIVER     FAIR      36  28  75 CALM      29.84F
BRAINERD       FAIR      43  29  57 S8        29.82F
STAPLES        FAIR      37  30  75 S6        29.81F
LONG PRAIRIE   FAIR      39  32  75 S7        29.83F
LITTLE FALLS   FAIR      37  27  65 SE5       29.84F
LITCHFIELD     FAIR      41  36  81 CALM      29.87F
BUFFALO        FAIR      42  33  70 S5        29.88F
MAPLE LAKE     FAIR      43  36  74 S7        29.87F
HUTCHINSON     FAIR      38  35  88 S3        29.89F
$$
MNZ037-044-045-052-053-260900-
   East Central Minnesota

CITY           SKY/WX    TMP DP  RH WIND       PRES   REMARKS
PRINCETON      FAIR      41  34  75 S3        29.87F
MORA           FAIR      32  28  86 CALM      29.88F
CAMBRIDGE      FAIR      45  32  61 S5        29.88F
RUSH CITY      FAIR      40  30  69 S5        29.87F
MOOSE LAKE     FAIR      32  25  74 CALM      29.83F
HINCKLEY       FAIR      32  28  86 CALM      29.86F
CLOQUET        FAIR      41  21  45 SW5       29.83F
MCGREGOR       FAIR      39  30  70 S5        29.83F
$$
MNZ071>073-080-081-089-090-097-098-260900-
   Southwest Minnesota

CITY           SKY/WX    TMP DP  RH WIND       PRES   REMARKS
MONTEVIDEO     CLOUDY    43  34  70 SW9       29.85F
GRANITE FALLS  CLOUDY    40  36  83 S9        29.87F
CANBY          CLOUDY    48  32  53 W14       29.85F
MARSHALL       CLOUDY    42  33  70 SW14      29.86F
REDWOOD FALLS  CLOUDY    40  33  76 S8        29.88F
OLIVIA         CLOUDY    41  32  70 S7        29.86F
PIPESTONE      CLOUDY   N/A N/A N/A SW13      29.88F
WINDOM         CLOUDY    43  25  49 S6        29.91F
WORTHINGTON    CLOUDY    41  30  65 S7        29.92F
JACKSON        CLOUDY    41  32  70 S9        29.92F
TRACY          CLOUDY    45  34  65 SW12      29.88F
SLAYTON        PTCLDY    39  32  75 S7        29.90F
$$
MNZ065>067-074>077-082>085-091>093-260900-
   South Central Minnesota

CITY           SKY/WX    TMP DP  RH WIND       PRES   REMARKS
MANKATO        FAIR      43  34  70 S6        29.92F
NEW ULM        PTCLDY    43  34  70 S8        29.90F
ST JAMES       CLOUDY    39  36  87 S3        29.92S
FAIRMONT       PTCLDY    40  35  83 SW5       29.92F
GLENCOE        FAIR      44  36  73 S5        29.89F
OWATONNA       FAIR      43  34  70 S7        29.91F
WASECA         FAIR      39  34  81 S5        29.92F
ALBERT LEA     FAIR      37  36  93 CALM      29.92F
$$
MNZ078>079-086>088-094>096-260900-
   Southeast Minnesota

CITY           SKY/WX    TMP DP  RH WIND       PRES   REMARKS
ROCHESTER      FAIR      38  33  82 S6        29.92F
RED WING       FAIR      34  27  75 CALM      29.91F
STANTON        FAIR      37  33  84 SW5       29.90F
DODGE CENTER   FAIR      37  32  81 CALM      29.92F
WINONA         FAIR      37  34  87 CALM      29.91F
AUSTIN         FAIR      37  36  93 CALM      29.92F
PRESTON        FAIR      39  31  71 SW3       29.93F
$$
ABBREVIATIONS USED IN REMARKS
   TC - TEMPERATURES IN CELSIUS
  WCI - WIND CHILL INDEX
   HX - HEAT INDEX
  VSB - VISIBILITY
$$



USA.gov is the U.S. government's official web portal to all federal, state and local government web resources and services.